Regional Weather Roundup
Issued by NWS

Home | Current Version | Previous Version | Text Only | Print | Product List | Glossary On
Versions: 1 2 3 4 5 6 7 8 9 10 11 12 13 14 15 16 17 18 19 20 21 22 23 24 25 26 27 28 29 30 31 32 33 34 35 36 37 38 39 40 41 42 43 44 45 46 47 48 49 50
723
ASUS44 KLIX 300401
RWRLA
LOUISIANA WEATHER ROUNDUP
NATIONAL WEATHER SERVICE NEW ORLEANS LA
1100 PM CDT TUE JUL 29 2014

NOTE: "FAIR" INDICATES FEW OR NO CLOUDS BELOW 12,000 FEET WITH NO
      SIGNIFICANT WEATHER AND/OR OBSTRUCTIONS TO VISIBILITY.
      SKY/WX - SKY CONDITION AND SIGNIFICANT WEATHER.
      TMP - AIR TEMPERATURE.    DP   - DEWPOINT TEMPERATURE.
      RH  - RELATIVE HUMIDITY.  PRES - PRESSURE.
      HX  - HEAT INDEX.         WCI  - WIND CHILL INDEX.

*  THESE STATIONS ARE NOT NWS OR FAA STATIONS AND ARE NOT UNDER
   NWS QUALITY CONTROL.

LAZ040-048-061>063-065-066-069-300500-
SOUTHEAST LOUISIANA

CITY           SKY/WX    TMP DP  RH WIND       PRES   REMARKS
N.O. AUDUBON     N/A     81  67  61 MISG        N/A
N.O. INTL ARPT PTCLDY    81  64  56 N5        30.04R
N.O. LAKEFRONT CLEAR     84  65  52 N9        30.04R
N.O. DOWNTOWN* FAIR      84  63  48 N3        30.04R
SLIDELL        PTCLDY    74  68  81 NW3       30.04R
BATON ROUGE    CLEAR     75  68  78 CALM      30.05R
BOOTHVILLE     CLEAR     78  70  76 W6        30.05R
BELLE CHASSE   MOCLDY    73  68  84 S3        30.03R
BOGALUSA*      FAIR      74  67  78 CALM      30.06R
GALLIANO*      NOT AVBL
NEW ROADS*     FAIR      74  69  84 N5        30.05R
GONZALES*      FAIR      72  72  99 CALM      30.04R
HAMMOND*       CLEAR     77  66  69 N5        30.06R
HOUMA*         CLEAR     73  67  82 CALM      30.04S
PORT FOURCHON* CLEAR     82  70  65 N5        30.05S

$$

LAZ041-044-053-054-300500-
SOUTHWEST LOUISIANA

CITY           SKY/WX    TMP DP  RH WIND       PRES   REMARKS
LAKE CHARLES   CLEAR     74  71  91 CALM      30.04R
LAFAYETTE      CLEAR     76  73  91 CALM      30.05R
PATTERSON      CLEAR     73  72  94 CALM      30.09R
SALT POINT       N/A     80  70  71 N3        30.04R
NEW IBERIA     CLEAR     74  69  85 CALM      30.05R
CHENAULT AIRPK CLEAR     77  70  78 CALM      30.05S

$$

LAZ027-028-300500-
CENTRAL LOUISIANA

CITY           SKY/WX    TMP DP  RH WIND       PRES   REMARKS
FORT POLK      CLEAR     74  70  87 CALM      30.05R
ALEXANDRIA INT CLEAR     77  69  76 NE5       30.04R
ALEXANDRIA     CLEAR     76  69  79 E3        30.06S

$$

LAZ001-002-300500-
NORTHWEST LOUISIANA

CITY           SKY/WX    TMP DP  RH WIND       PRES   REMARKS
SHREVEPORT     MOCLDY    79  65  62 E8        30.05F
BARKSDALE AFB  CLEAR     76  65  69 E5        30.06S
DTN SHREVEPORT CLEAR     78  64  61 E5        30.06S

$$

LAZ014-016-300500-
NORTHEAST LOUISIANA

CITY           SKY/WX    TMP DP  RH WIND       PRES   REMARKS
MONROE         CLEAR     72  62  71 NE5       30.09S
TALLULAH       CLEAR     70  62  76 NE9       30.08R

$$




USA.gov is the U.S. government's official web portal to all federal, state and local government web resources and services.